Location: *
(28.3744°N, 81.5492°W)
Time: 03:41:34
(UTC+00:00)

Cosmos 1726 Rocket - Pass Details

Date: 15 June 2025
Orbit: 555 x 663 km, 82.5° (Epoch: 11 July)

Event Time Altitude Azimuth Distance (km) Brightness Sun altitude
Rises 09:21:12 0° 358° (N) 2,780 7.4 -13.5°
Reaches altitude 10° 09:23:23 10° 2° (N) 1,893 6.6 -13.1°
Maximum altitude 09:27:31 63° 84° (E) 663 4.0 -12.3°
Drops below altitude 10° 09:31:46 10° 165° (SSE) 1,946 5.9 -11.6°
Sets 09:34:02 0° 169° (SSE) 2,865 6.7 -11.2°
